This is the latest recevied weather packets stored in our database for station/object KB8TTR. If no packets are shown the sender has not sent any weather packets the latest 10 day(s).
| Time | Temp. | Humidity | Pressure | Rain* | Wind** | Luminosity | Snow |
|---|---|---|---|---|---|---|---|
| 1788559586 | 26.11° C | 83% | 1015.4 hPa | 0 mm | - | 152 W/m² | - |
| 1788559282 | 26.11° C | 83% | 1015.3 hPa | 0 mm | - | 153 W/m² | - |
| 1788558981 | 26.11° C | 82% | 1015.2 hPa | 0 mm | - | 155 W/m² | - |
| 1788558678 | 26.11° C | 82% | 1015 hPa | 0 mm | - | 158 W/m² | - |
| 1788558377 | 26.11° C | 84% | 1014.8 hPa | 0 mm | - | 165 W/m² | - |
| 1788558073 | 25.56° C | 83% | 1014.9 hPa | 0 mm | - | 165 W/m² | - |
| 1788557771 | 25.56° C | 84% | 1015 hPa | 0 mm | - | 171 W/m² | - |
| 1788557468 | 25.56° C | 85% | 1014.9 hPa | 0 mm | - | 166 W/m² | - |
| 1788557168 | 25.56° C | 84% | 1014.9 hPa | 0 mm | - | 152 W/m² | - |
| 1788556863 | 25.56° C | 84% | 1014.8 hPa | 0 mm | - | 147 W/m² | - |
| 1788556562 | 25.56° C | 85% | 1015 hPa | 0 mm | - | 148 W/m² | - |
| 1788556258 | 25.56° C | 85% | 1015.3 hPa | 0 mm | - | 151 W/m² | - |
| 1788555957 | 25.56° C | 85% | 1015.2 hPa | 0 mm | - | 152 W/m² | - |
| 1788555653 | 25.56° C | 85% | 1015.5 hPa | 0 mm | - | 153 W/m² | - |
| 1788555348 | 25.56° C | 85% | 1015.7 hPa | 0 mm | - | 155 W/m² | - |
| 1788555045 | 25.56° C | 84% | 1015.3 hPa | 0 mm | - | 170 W/m² | - |
| 1788554741 | 25.56° C | 85% | 1015.2 hPa | 0 mm | - | 173 W/m² | - |
| 1788554437 | 25.56° C | 84% | 1015.1 hPa | 0 mm | - | 173 W/m² | - |
| 1788554132 | 25.56° C | 84% | 1014.7 hPa | 0 mm | - | 175 W/m² | - |
| 1788553829 | 25.56° C | 84% | 1015 hPa | 0 mm | - | 174 W/m² | - |
| 1788553524 | 25.56° C | 85% | 1014.9 hPa | 0 mm | - | 167 W/m² | - |
| 1788553221 | 25.56° C | 84% | 1014.7 hPa | 0 mm | - | 146 W/m² | - |
| 1788552915 | 25.56° C | 84% | 1014.3 hPa | 0 mm | - | 143 W/m² | - |
| 1788552611 | 25.56° C | 85% | 1014.3 hPa | 0 mm | - | 155 W/m² | - |
| 1788552309 | 25.56° C | 82% | 1014.1 hPa | 0 mm | - | 169 W/m² | - |
* Rain latest hour (hover to see other rain measurements)
** Current wind speed in m/s (hover to see current wind gust speed)